Flag Weather past 2 weeks in Hamilton, Bermuda

Now
75 °F

Broken clouds.


Feels Like: 77 °F
Forecast: 70 / 75 °F
Wind: 22 mph from South

Location: Bermuda

Current Time: Nov 24, 2014 at 12:36:02 PM

Latest Report: Nov 24, 2014 at 11:55 AM


Visibility: N/A

Pressure: 30.30 "Hg

Humidity: 65%

Dew point: 63 °F

Location of HamiltonLocation

Historic Weather in Hamilton — Graph

°F

Hamilton temperature yesterday

Maximum temperature yesterday: 70 °F (at 1:55 PM)
Minimum temperature yesterday: 63 °F (at 6:55 AM)
Average temperature yesterday: 67 °F

Past Weeks' High & Low Weather Summary

 TemperatureHumidityPressure
High79 °F (Nov 10, 11:55 AM)100% (Nov 9, 1:55 PM)30.42 "Hg (Nov 9, 1:55 PM)
Low61 °F (Nov 20, 1:55 AM)49% (Nov 22, 12:55 PM)29.80 "Hg (Nov 12, 8:55 PM)
Average72 °F80%30.10 "Hg
* Reported Nov 9 10:55 AM — Nov 24 10:55 AM, Hamilton, Weather by CustomWeather, © 2014

Note: Actual official high and low records may vary slightly from our data, if they occured in-between our weather recording intervals... More about our weather records

Advertising

Hamilton weather history for previous 24 hours

 ConditionsComfort  
Time TempWeatherWind HumidityBarometerVisibility
10:55 AM
Nov 24
75 °FBroken clouds.21 mph65%30.33 "HgN/A
9:55 AM73 °FBroken clouds.21 mph69%30.33 "HgN/A
8:55 AM73 °FBroken clouds.22 mph65%30.33 "HgN/A
7:55 AM72 °FBroken clouds.20 mph65%30.33 "HgN/A
6:55 AM70 °FBroken clouds.22 mph69%30.30 "HgN/A
5:55 AM70 °FPartly cloudy.21 mph64%30.30 "HgN/A
4:55 AM70 °FPartly cloudy.16 mph64%30.30 "HgN/A
3:55 AM68 °FPartly cloudy.16 mph60%30.33 "HgN/A
2:55 AM68 °FPartly cloudy.17 mph60%30.33 "HgN/A
1:55 AM70 °FMostly cloudy.18 mph57%30.33 "HgN/A
12:55 AM70 °FPartly cloudy.20 mph57%30.33 "HgN/A
11:55 PM
Nov 23
68 °FPassing clouds.18 mph60%30.36 "HgN/A
10:55 PM68 °FPartly cloudy.15 mph64%30.36 "HgN/A
9:55 PM68 °FPartly cloudy.15 mph64%30.36 "HgN/A
8:55 PM68 °FPassing clouds.12 mph60%30.36 "HgN/A
7:55 PM68 °FMostly cloudy.9 mph56%30.36 "HgN/A
6:55 PM68 °FPassing clouds.10 mph56%30.33 "HgN/A
5:55 PM68 °FPartly cloudy.8 mph60%30.33 "HgN/A
4:55 PM68 °FBroken clouds.9 mph60%30.33 "HgN/A
3:55 PM70 °FPartly sunny.12 mph60%30.33 "HgN/A
2:55 PM70 °FPartly sunny.10 mph57%30.33 "HgN/A
1:55 PM70 °FScattered clouds.6 mph69%30.36 "HgN/A
12:55 PM68 °FScattered clouds.9 mph69%30.39 "HgN/A
Weather by CustomWeather, © 2014

See weather overviewHow to use our weather pages